Find Starlink 32522

NORAD ID: 61981 Int'l Des: 2024-210 Owner: SPXS Country: US Constellation: starlink operational
LEOCIRCULAR

当前视图

正在加载3D地球...

About Starlink 32522

Starlink 32522 (NORAD 61981) is a starlink constellation satellite (v2 mini) launched Nov 14, 2024 by SPXS of US. It operates in LEO, CIRCULAR orbit with a mass of 730.00 kg.

关于 Starlink 32522

正在加载描述...

即将过境

Passes for default location (London). Set your location on the main map for personalized predictions.

高度历史

Loading altitude history...

两行轨道根数

1 61981U 24210Y 26166.78863745 .00021300 00000-0 78111-3 0 9990
2 61981 43.0007 345.7519 0000427 185.7674 174.3173 15.27589325 89882
Epoch: Jun 15, 2026 • Age: 11 hours

当前状态

高度 486.2 km
速度 7.63 km/s
星下点 43.11°N, 70.85°E
发射日期 Nov 14, 2024
运行时间 1.5 years
类型 internet

技术详情

分类 Payload
质量 730.00 kg
干质量 700.00 kg
总质量 730.00 kg
长度 0.30 m
直径 4.10 m
跨度 29.00 m
形状 Box + pan
制造商 SPXS
平台类型 Starlink V2M
阶段状态 In Orbit
所有者/国家 SPXS/US

Most Searched